When you browse on this site, cookies collect data to enhance your experience and personalize the content and advertising you see.
Visit our Privacy Policy to learn more. By continuing to use the site, you agree to this use of cookies and data.

Tiempo cada hora Elda

Hoy, 18 Septiembre, Viernes

Tiempo Temperatura Precipitaciones Viento Presión Humedad
00:00 +22°C° 0 mm 0 mps 723 mmHg 68%
01:00 +24°C° 0.1 mm 1 mps 723 mmHg 67%
02:00 +24°C° 0.1 mm 2 mps 723 mmHg 67%
03:00 +24°C° 0.1 mm 3 mps 723 mmHg 66%
04:00 +22°C° 0.8 mm 3 mps 723 mmHg 67%
05:00 +21°C° 0.8 mm 4 mps 723 mmHg 68%
06:00 +20°C° 0.8 mm 4 mps 723 mmHg 69%
07:00 +21°C° 0.4 mm 4 mps 723 mmHg 66%
08:00 +22°C° 0.4 mm 3 mps 723 mmHg 63%
09:00 +24°C° 0.4 mm 2 mps 724 mmHg 59%
10:00 +25°C° 0.2 mm 3 mps 724 mmHg 57%
11:00 +25°C° 0.2 mm 4 mps 724 mmHg 55%
12:00 +26°C° 0.2 mm 5 mps 724 mmHg 53%
13:00 +26°C° 1 mm 4 mps 724 mmHg 54%
14:00 +26°C° 1 mm 4 mps 723 mmHg 55%
15:00 +26°C° 1 mm 4 mps 723 mmHg 56%
16:00 +25°C° 0 mm 4 mps 722 mmHg 61%
17:00 +25°C° 0 mm 3 mps 722 mmHg 65%
18:00 +24°C° 0 mm 3 mps 722 mmHg 70%
19:00 +23°C° 0.1 mm 2 mps 722 mmHg 76%
20:00 +23°C° 0.1 mm 2 mps 723 mmHg 81%
21:00 +21°C° 0.1 mm 2 mps 723 mmHg 86%
22:00 +22°C° 0 mm 1 mps 723 mmHg 88%
23:00 +21°C° 0 mm 1 mps 723 mmHg 89%

Mañana, 19 Septiembre, Sábado

Tiempo Temperatura Precipitaciones Viento Presión Humedad
00:00 +19°C° 0 mm 0 mps 723 mmHg 91%
01:00 +19°C° 0 mm 0 mps 723 mmHg 90%
02:00 +19°C° 0 mm 0 mps 723 mmHg 89%
03:00 +20°C° 0 mm 0 mps 723 mmHg 87%
04:00 +19°C° 0 mm 0 mps 723 mmHg 89%
05:00 +20°C° 0 mm 1 mps 723 mmHg 90%
06:00 +20°C° 0 mm 1 mps 723 mmHg 92%
07:00 +21°C° 0 mm 1 mps 723 mmHg 80%
08:00 +23°C° 0 mm 1 mps 724 mmHg 69%
09:00 +24°C° 0 mm 1 mps 724 mmHg 58%
10:00 +25°C° 0 mm 2 mps 724 mmHg 51%
11:00 +26°C° 0 mm 3 mps 725 mmHg 44%
12:00 +28°C° 0 mm 3 mps 725 mmHg 36%
13:00 +28°C° 0 mm 3 mps 724 mmHg 38%
14:00 +28°C° 0 mm 4 mps 724 mmHg 40%
15:00 +28°C° 0 mm 4 mps 723 mmHg 42%
16:00 +27°C° 0 mm 3 mps 723 mmHg 48%
17:00 +26°C° 0 mm 3 mps 723 mmHg 54%
18:00 +25°C° 0 mm 2 mps 723 mmHg 60%
19:00 +25°C° 0 mm 2 mps 724 mmHg 61%
20:00 +24°C° 0 mm 1 mps 724 mmHg 62%
21:00 +24°C° 0 mm 1 mps 725 mmHg 63%
22:00 +23°C° 0 mm 2 mps 724 mmHg 62%
23:00 +23°C° 0 mm 2 mps 724 mmHg 60%

Pasado mañana, 20 Septiembre, Domingo

Tiempo Temperatura Precipitaciones Viento Presión Humedad
00:00 +21°C° 0 mm 2 mps 724 mmHg 58%
01:00 +21°C° 0 mm 2 mps 724 mmHg 59%
02:00 +21°C° 0 mm 3 mps 724 mmHg 60%
03:00 +20°C° 0 mm 3 mps 724 mmHg 62%
04:00 +20°C° 0 mm 3 mps 724 mmHg 63%
05:00 +19°C° 0 mm 2 mps 724 mmHg 64%
06:00 +19°C° 0 mm 2 mps 724 mmHg 65%
07:00 +21°C° 0 mm 3 mps 724 mmHg 60%
08:00 +22°C° 0 mm 3 mps 725 mmHg 54%
09:00 +25°C° 0 mm 4 mps 725 mmHg 49%
10:00 +26°C° 0 mm 4 mps 725 mmHg 44%
11:00 +27°C° 0 mm 4 mps 725 mmHg 40%
12:00 +28°C° 0 mm 4 mps 725 mmHg 35%
13:00 +28°C° 0 mm 3 mps 725 mmHg 33%
14:00 +29°C° 0 mm 3 mps 724 mmHg 31%
15:00 +29°C° 0 mm 3 mps 724 mmHg 30%
16:00 +28°C° 0 mm 3 mps 724 mmHg 34%
17:00 +27°C° 0 mm 3 mps 724 mmHg 39%
18:00 +26°C° 0 mm 2 mps 723 mmHg 44%
19:00 +25°C° 0 mm 2 mps 724 mmHg 48%
20:00 +24°C° 0 mm 1 mps 724 mmHg 52%
21:00 +24°C° 0 mm 1 mps 725 mmHg 57%
22:00 +23°C° 0 mm 1 mps 724 mmHg 56%
23:00 +23°C° 0 mm 1 mps 724 mmHg 56%

21 Septiembre, Lunes

Tiempo Temperatura Precipitaciones Viento Presión Humedad
00:00 +23°C° 0 mm 1 mps 724 mmHg 56%
01:00 +22°C° 0 mm 1 mps 724 mmHg 55%
02:00 +22°C° 0 mm 1 mps 723 mmHg 54%
03:00 +22°C° 0 mm 1 mps 723 mmHg 53%
04:00 +22°C° 0 mm 1 mps 723 mmHg 54%
05:00 +21°C° 0 mm 1 mps 723 mmHg 54%
06:00 +21°C° 0 mm 1 mps 723 mmHg 55%
07:00 +23°C° 0 mm 1 mps 724 mmHg 51%
08:00 +24°C° 0 mm 1 mps 724 mmHg 46%
09:00 +26°C° 0 mm 1 mps 724 mmHg 41%
10:00 +27°C° 0 mm 1 mps 724 mmHg 39%
11:00 +28°C° 0 mm 1 mps 724 mmHg 36%
12:00 +28°C° 0 mm 2 mps 724 mmHg 34%
13:00 +29°C° 0 mm 2 mps 724 mmHg 33%
14:00 +29°C° 0 mm 3 mps 723 mmHg 33%
15:00 +29°C° 0 mm 3 mps 723 mmHg 33%
16:00 +28°C° 0 mm 3 mps 723 mmHg 39%
17:00 +27°C° 0 mm 2 mps 722 mmHg 45%
18:00 +25°C° 0 mm 2 mps 722 mmHg 51%
19:00 +25°C° 0 mm 2 mps 722 mmHg 55%
20:00 +24°C° 0 mm 1 mps 723 mmHg 60%
21:00 +23°C° 0 mm 1 mps 723 mmHg 64%
22:00 +23°C° 0 mm 1 mps 722 mmHg 62%
23:00 +23°C° 0 mm 1 mps 722 mmHg 60%

22 Septiembre, Martes

Tiempo Temperatura Precipitaciones Viento Presión Humedad
00:00 +23°C° 0 mm 1 mps 722 mmHg 58%
01:00 +22°C° 0 mm 1 mps 722 mmHg 58%
02:00 +22°C° 0 mm 1 mps 721 mmHg 59%
03:00 +21°C° 0 mm 1 mps 721 mmHg 60%
04:00 +21°C° 0.3 mm 1 mps 721 mmHg 63%
05:00 +20°C° 0.3 mm 1 mps 721 mmHg 65%
06:00 +20°C° 0.3 mm 1 mps 721 mmHg 68%
07:00 +21°C° 0.2 mm 1 mps 722 mmHg 63%
08:00 +23°C° 0.2 mm 1 mps 722 mmHg 57%
09:00 +24°C° 0.2 mm 1 mps 722 mmHg 52%
10:00 +25°C° 0 mm 1 mps 722 mmHg 48%
11:00 +26°C° 0 mm 2 mps 722 mmHg 44%
12:00 +27°C° 0 mm 2 mps 722 mmHg 41%
13:00 +27°C° 0 mm 2 mps 722 mmHg 42%
14:00 +28°C° 0 mm 2 mps 722 mmHg 43%
15:00 +28°C° 0 mm 3 mps 721 mmHg 45%
16:00 +26°C° 0.8 mm 3 mps 721 mmHg 51%
17:00 +25°C° 0.8 mm 2 mps 721 mmHg 57%
18:00 +24°C° 0.8 mm 2 mps 721 mmHg 63%
19:00 +24°C° 0.4 mm 2 mps 722 mmHg 65%
20:00 +24°C° 0.4 mm 1 mps 722 mmHg 66%
21:00 +23°C° 0.4 mm 1 mps 723 mmHg 67%
22:00 +23°C° 0 mm 1 mps 722 mmHg 67%
23:00 +23°C° 0 mm 1 mps 722 mmHg 67%

23 Septiembre, Miércoles

Tiempo Temperatura Precipitaciones Viento Presión Humedad
00:00 +22°C° 0 mm 1 mps 722 mmHg 68%
01:00 +22°C° 0 mm 1 mps 722 mmHg 69%
02:00 +19°C° 0 mm 0 mps 722 mmHg 71%
03:00 +19°C° 0 mm 0 mps 721 mmHg 72%
04:00 +19°C° 0 mm 0 mps 721 mmHg 72%
05:00 +18°C° 0 mm 0 mps 722 mmHg 71%
06:00 +18°C° 0 mm 0 mps 722 mmHg 71%
07:00 +22°C° 0 mm 1 mps 722 mmHg 64%
08:00 +23°C° 0 mm 1 mps 722 mmHg 57%
09:00 +25°C° 0 mm 1 mps 722 mmHg 49%
10:00 +26°C° 0 mm 1 mps 722 mmHg 45%
11:00 +27°C° 0 mm 2 mps 722 mmHg 41%
12:00 +28°C° 0 mm 2 mps 722 mmHg 37%
13:00 +28°C° 0 mm 2 mps 722 mmHg 36%
14:00 +28°C° 0 mm 3 mps 721 mmHg 35%
15:00 +29°C° 0 mm 3 mps 721 mmHg 34%
16:00 +28°C° 0 mm 3 mps 721 mmHg 38%
17:00 +27°C° 0 mm 3 mps 720 mmHg 42%
18:00 +26°C° 0 mm 3 mps 720 mmHg 46%
19:00 +25°C° 0 mm 2 mps 721 mmHg 49%
20:00 +25°C° 0 mm 2 mps 721 mmHg 51%
21:00 +25°C° 0 mm 1 mps 721 mmHg 53%
22:00 +24°C° 0 mm 1 mps 721 mmHg 54%
23:00 +24°C° 0 mm 1 mps 721 mmHg 54%
Mostrar más